ELECTRON R/B (45112 NORAD) Tracking and Keplerian Element Data

This shows tracking and keplerian element data for the satellite.

Feedback or suggestion? Click here.




ElementValue
Catalog45112
NameELECTRON R/B
Epoch Orbit57
Epoch Day53.1474637
Epoch Year2020
RAAN92.0988
Inclination69.9516
Eccentricity0.0042153
Argument of Perigee205.5622
Mean Anonmoly155.008
Mean Motion16.37958619
Decay Rate0.10180022
L11 45112U 20007C 20053.14746370 .10180022 38477-5 39387-3 0 9995
L22 45112 69.9516 92.0988 0042153 205.5622 155.0080 16.37958619 570

Live tracking and technical data element details for ELECTRON R/B (NORAD 45112). ELECTRON R/B can be tracked NOW for your location showing map with azimuth and elevation plus other details from your city location.

Track the satellite on the map from your city or location and see movement details for azimuth, elevation, latitude, longitude, range, height, and movement on the map or in text.







IsCatalogInMostPopularTable: catalog: 45112, numindb: 10
Update: records affected: 1



GetName: 45112 ELECTRON R/B

Hit Count: updated at: Fri, 10 Apr 2020 18:32:25 GMT